Location: Palomar Mountain Lodge
(33.3110°N, 116.8495°W)
Time: 00:09:01
(UTC-07:00)

NOSS 2 (A) - Pass Details

Date: 14 June 2018
Orbit: 273 x 1575 km, 63.3° (Epoch: 06 February)

Event Time Altitude Azimuth Distance (km) Brightness Sun altitude
Rises 20:51:43 0° 334° (NNW) 1,907 9.3 -10.2°
Reaches altitude 10° 20:53:31 10° 340° (NNW) 1,114 7.9 -10.5°
Maximum altitude 20:55:50 53° 59° (ENE) 377 4.3 -10.9°
Enters shadow 20:57:24 20° 131° (SE) 810 5.5 -11.2°
